When you browse on this site, cookies collect data to enhance your experience and personalize the content and advertising you see.
Visit our Privacy Policy to learn more. By continuing to use the site, you agree to this use of cookies and data.

Tiempo cada hora Zaafrana

Hoy, 7 Agosto, Viernes

Tiempo Temperatura Precipitaciones Viento Presión Humedad
00:00 +28°C° 0 mm 3 mps 741 mmHg 41%
01:00 +27°C° 0 mm 2 mps 741 mmHg 46%
02:00 +27°C° 0 mm 2 mps 741 mmHg 51%
03:00 +26°C° 0 mm 2 mps 741 mmHg 52%
04:00 +26°C° 0 mm 2 mps 741 mmHg 53%
05:00 +25°C° 0 mm 2 mps 741 mmHg 54%
06:00 +28°C° 0 mm 2 mps 742 mmHg 44%
07:00 +31°C° 0 mm 1 mps 742 mmHg 34%
08:00 +34°C° 0 mm 1 mps 742 mmHg 24%
09:00 +37°C° 0 mm 2 mps 742 mmHg 21%
10:00 +39°C° 0 mm 3 mps 742 mmHg 18%
11:00 +42°C° 0 mm 3 mps 742 mmHg 15%
12:00 +42°C° 0 mm 4 mps 742 mmHg 14%
13:00 +43°C° 0 mm 5 mps 741 mmHg 13%
14:00 +45°C° 0 mm 6 mps 740 mmHg 13%
15:00 +45°C° 0 mm 6 mps 740 mmHg 13%
16:00 +44°C° 0 mm 6 mps 740 mmHg 13%
17:00 +44°C° 0 mm 6 mps 740 mmHg 13%
18:00 +40°C° 0 mm 6 mps 740 mmHg 19%
19:00 +37°C° 0 mm 5 mps 740 mmHg 24%
20:00 +34°C° 0 mm 5 mps 741 mmHg 30%
21:00 +33°C° 0 mm 5 mps 741 mmHg 34%
22:00 +30°C° 0 mm 4 mps 742 mmHg 38%
23:00 +29°C° 0 mm 4 mps 742 mmHg 42%

Mañana, 8 Agosto, Sábado

Tiempo Temperatura Precipitaciones Viento Presión Humedad
00:00 +29°C° 0 mm 3 mps 742 mmHg 42%
01:00 +28°C° 0 mm 3 mps 741 mmHg 42%
02:00 +28°C° 0 mm 3 mps 741 mmHg 42%
03:00 +28°C° 0 mm 3 mps 741 mmHg 42%
04:00 +28°C° 0 mm 3 mps 741 mmHg 42%
05:00 +27°C° 0 mm 3 mps 741 mmHg 42%
06:00 +30°C° 0 mm 3 mps 741 mmHg 36%
07:00 +34°C° 0 mm 3 mps 742 mmHg 30%
08:00 +36°C° 0 mm 4 mps 742 mmHg 24%
09:00 +39°C° 0 mm 5 mps 742 mmHg 21%
10:00 +41°C° 0 mm 5 mps 742 mmHg 18%
11:00 +44°C° 0 mm 6 mps 741 mmHg 16%
12:00 +44°C° 0 mm 7 mps 741 mmHg 15%
13:00 +45°C° 0 mm 8 mps 740 mmHg 14%
14:00 +47°C° 0 mm 9 mps 740 mmHg 13%
15:00 +46°C° 0 mm 8 mps 739 mmHg 14%
16:00 +45°C° 0 mm 7 mps 739 mmHg 14%
17:00 +45°C° 0 mm 6 mps 739 mmHg 15%
18:00 +41°C° 0 mm 6 mps 740 mmHg 21%
19:00 +38°C° 0 mm 6 mps 740 mmHg 27%
20:00 +35°C° 0 mm 6 mps 740 mmHg 33%
21:00 +33°C° 0 mm 5 mps 741 mmHg 38%
22:00 +32°C° 0 mm 4 mps 741 mmHg 43%
23:00 +29°C° 0 mm 3 mps 741 mmHg 49%

Pasado mañana, 9 Agosto, Domingo

Tiempo Temperatura Precipitaciones Viento Presión Humedad
00:00 +29°C° 0 mm 3 mps 740 mmHg 50%
01:00 +28°C° 0 mm 2 mps 740 mmHg 51%
02:00 +28°C° 0 mm 2 mps 740 mmHg 52%
03:00 +27°C° 0 mm 2 mps 740 mmHg 52%
04:00 +27°C° 0 mm 1 mps 740 mmHg 53%
05:00 +27°C° 0 mm 1 mps 740 mmHg 54%
06:00 +29°C° 0 mm 1 mps 740 mmHg 46%
07:00 +32°C° 0 mm 1 mps 740 mmHg 39%
08:00 +35°C° 0 mm 2 mps 740 mmHg 31%
09:00 +37°C° 0 mm 2 mps 740 mmHg 27%
10:00 +39°C° 0 mm 3 mps 740 mmHg 23%
11:00 +42°C° 0 mm 4 mps 740 mmHg 20%
12:00 +42°C° 0 mm 5 mps 740 mmHg 18%
13:00 +43°C° 0 mm 5 mps 740 mmHg 17%
14:00 +45°C° 0 mm 6 mps 739 mmHg 15%
15:00 +44°C° 0 mm 6 mps 739 mmHg 16%
16:00 +44°C° 0 mm 6 mps 739 mmHg 16%
17:00 +44°C° 0 mm 6 mps 739 mmHg 17%
18:00 +40°C° 0 mm 6 mps 739 mmHg 23%
19:00 +36°C° 0 mm 5 mps 739 mmHg 30%
20:00 +34°C° 0 mm 5 mps 740 mmHg 37%
21:00 +33°C° 0 mm 4 mps 740 mmHg 44%
22:00 +30°C° 0 mm 4 mps 740 mmHg 51%
23:00 +29°C° 0 mm 3 mps 741 mmHg 58%

10 Agosto, Lunes

Tiempo Temperatura Precipitaciones Viento Presión Humedad
00:00 +28°C° 0 mm 3 mps 740 mmHg 61%
01:00 +28°C° 0 mm 3 mps 740 mmHg 64%
02:00 +27°C° 0 mm 2 mps 740 mmHg 66%
03:00 +27°C° 0 mm 2 mps 740 mmHg 67%
04:00 +27°C° 0 mm 2 mps 740 mmHg 67%
05:00 +26°C° 0 mm 2 mps 740 mmHg 68%
06:00 +28°C° 0 mm 2 mps 740 mmHg 59%
07:00 +30°C° 0 mm 1 mps 741 mmHg 51%
08:00 +32°C° 0 mm 1 mps 741 mmHg 43%
09:00 +35°C° 0 mm 2 mps 741 mmHg 36%
10:00 +37°C° 0 mm 3 mps 741 mmHg 30%
11:00 +40°C° 0 mm 4 mps 741 mmHg 23%
12:00 +41°C° 0 mm 4 mps 741 mmHg 21%
13:00 +41°C° 0 mm 4 mps 740 mmHg 18%
14:00 +42°C° 0 mm 5 mps 740 mmHg 15%
15:00 +42°C° 0 mm 5 mps 740 mmHg 16%
16:00 +41°C° 0 mm 4 mps 740 mmHg 17%
17:00 +41°C° 0 mm 4 mps 739 mmHg 18%
18:00 +38°C° 0 mm 4 mps 740 mmHg 21%
19:00 +36°C° 0 mm 4 mps 740 mmHg 25%
20:00 +34°C° 0 mm 4 mps 741 mmHg 29%
21:00 +31°C° 0 mm 3 mps 741 mmHg 38%
22:00 +30°C° 0 mm 3 mps 741 mmHg 48%
23:00 +28°C° 0 mm 3 mps 741 mmHg 57%

11 Agosto, Martes

Tiempo Temperatura Precipitaciones Viento Presión Humedad
00:00 +28°C° 0 mm 3 mps 741 mmHg 60%
01:00 +27°C° 0 mm 2 mps 741 mmHg 62%
02:00 +27°C° 0 mm 2 mps 741 mmHg 64%
03:00 +26°C° 0 mm 1 mps 741 mmHg 66%
04:00 +26°C° 0 mm 1 mps 741 mmHg 67%
05:00 +25°C° 0 mm 1 mps 741 mmHg 68%
06:00 +28°C° 0 mm 1 mps 741 mmHg 59%
07:00 +30°C° 0 mm 2 mps 741 mmHg 50%
08:00 +33°C° 0 mm 3 mps 742 mmHg 40%
09:00 +35°C° 0 mm 4 mps 742 mmHg 35%
10:00 +37°C° 0 mm 5 mps 742 mmHg 29%
11:00 +39°C° 0 mm 6 mps 742 mmHg 24%
12:00 +40°C° 0 mm 5 mps 741 mmHg 23%
13:00 +40°C° 0 mm 5 mps 740 mmHg 22%
14:00 +41°C° 0 mm 5 mps 740 mmHg 21%
15:00 +41°C° 0 mm 5 mps 740 mmHg 21%
16:00 +40°C° 0 mm 5 mps 739 mmHg 21%
17:00 +40°C° 0 mm 5 mps 739 mmHg 21%
18:00 +37°C° 0 mm 5 mps 739 mmHg 30%
19:00 +34°C° 0 mm 5 mps 740 mmHg 38%
20:00 +32°C° 0 mm 5 mps 740 mmHg 47%
21:00 +30°C° 0 mm 4 mps 740 mmHg 56%
22:00 +29°C° 0 mm 4 mps 740 mmHg 65%
23:00 +28°C° 0 mm 4 mps 741 mmHg 73%

12 Agosto, Miércoles

Tiempo Temperatura Precipitaciones Viento Presión Humedad
00:00 +27°C° 0 mm 3 mps 740 mmHg 75%
01:00 +27°C° 0 mm 2 mps 740 mmHg 77%
02:00 +26°C° 0 mm 2 mps 740 mmHg 79%
03:00 +26°C° 0 mm 2 mps 740 mmHg 79%
04:00 +25°C° 0 mm 2 mps 740 mmHg 80%
05:00 +25°C° 0 mm 2 mps 740 mmHg 80%
06:00 +26°C° 0 mm 2 mps 740 mmHg 72%
07:00 +28°C° 0 mm 2 mps 740 mmHg 64%
08:00 +30°C° 0 mm 2 mps 740 mmHg 55%
09:00 +31°C° 0 mm 2 mps 740 mmHg 47%
10:00 +34°C° 0 mm 2 mps 740 mmHg 40%
11:00 +36°C° 0 mm 3 mps 740 mmHg 32%
12:00 +37°C° 0 mm 4 mps 739 mmHg 29%
13:00 +38°C° 0 mm 4 mps 739 mmHg 27%
14:00 +40°C° 0 mm 5 mps 738 mmHg 25%
15:00 +40°C° 0 mm 5 mps 738 mmHg 24%
16:00 +39°C° 0 mm 5 mps 738 mmHg 24%
17:00 +39°C° 0 mm 5 mps 738 mmHg 24%
18:00 +36°C° 0 mm 5 mps 738 mmHg 31%
19:00 +34°C° 0 mm 5 mps 739 mmHg 38%
20:00 +32°C° 0 mm 5 mps 739 mmHg 44%
21:00 +30°C° 0 mm 4 mps 739 mmHg 52%
22:00 +29°C° 0 mm 4 mps 740 mmHg 61%
23:00 +28°C° 0 mm 3 mps 740 mmHg 69%
Mostrar más